• In Deutschland
  • Länderverzeichnis
  • Für 7 Tage
  • Wassertemperatur
  • Satellitenkarten
  • Wetterkarte
  • Widgets
  • user-avatar
    Anmelden

    Stündliche Wetter Impfondo

    Heute, 20 August, Sonntag

    Zeit Temperatur Niederschläge Wind Luftdruck Luftfeuchtigkeit
    00:00 +24°C° 0 mm 0 m/S 731 mmHg 78%
    01:00 +25°C° 0 mm 1 m/S 731 mmHg 83%
    02:00 +23°C° 0 mm 0 m/S 731 mmHg 85%
    03:00 +22°C° 0 mm 0 m/S 731 mmHg 86%
    04:00 +22°C° 0 mm 0 m/S 731 mmHg 88%
    05:00 +23°C° 0 mm 0 m/S 731 mmHg 86%
    06:00 +24°C° 0 mm 0 m/S 732 mmHg 83%
    07:00 +24°C° 0 mm 0 m/S 732 mmHg 80%
    08:00 +27°C° 0,4 mm 0 m/S 732 mmHg 72%
    09:00 +29°C° 0,4 mm 0 m/S 732 mmHg 64%
    10:00 +33°C° 0,4 mm 1 m/S 733 mmHg 56%
    11:00 +34°C° 0,8 mm 1 m/S 732 mmHg 55%
    12:00 +34°C° 0,8 mm 1 m/S 731 mmHg 53%
    13:00 +34°C° 0,8 mm 1 m/S 731 mmHg 52%
    14:00 +34°C° 0,2 mm 1 m/S 730 mmHg 52%
    15:00 +34°C° 0,2 mm 2 m/S 730 mmHg 52%
    16:00 +34°C° 0,2 mm 2 m/S 730 mmHg 53%
    17:00 +31°C° 0,1 mm 1 m/S 730 mmHg 61%
    18:00 +29°C° 0,1 mm 1 m/S 730 mmHg 69%
    19:00 +27°C° 0,1 mm 1 m/S 730 mmHg 76%
    20:00 +27°C° 0 mm 1 m/S 731 mmHg 79%
    21:00 +26°C° 0 mm 1 m/S 731 mmHg 82%
    22:00 +24°C° 0 mm 0 m/S 732 mmHg 85%
    23:00 +23°C° 0,1 mm 0 m/S 732 mmHg 87%

    Morgen, 21 August, Montag

    Zeit Temperatur Niederschläge Wind Luftdruck Luftfeuchtigkeit
    00:00 +23°C° 0,1 mm 0 m/S 732 mmHg 88%
    01:00 +23°C° 0,1 mm 0 m/S 731 mmHg 90%
    02:00 +22°C° 0,2 mm 0 m/S 731 mmHg 92%
    03:00 +22°C° 0,2 mm 0 m/S 731 mmHg 94%
    04:00 +22°C° 0,2 mm 0 m/S 731 mmHg 95%
    05:00 +24°C° 0,3 mm 1 m/S 731 mmHg 94%
    06:00 +24°C° 0,3 mm 1 m/S 732 mmHg 93%
    07:00 +25°C° 0,3 mm 1 m/S 732 mmHg 92%
    08:00 +27°C° 0 mm 1 m/S 732 mmHg 81%
    09:00 +29°C° 0 mm 1 m/S 733 mmHg 69%
    10:00 +32°C° 0 mm 2 m/S 733 mmHg 58%
    11:00 +32°C° 0,7 mm 2 m/S 732 mmHg 58%
    12:00 +33°C° 0,7 mm 1 m/S 731 mmHg 57%
    13:00 +33°C° 0,7 mm 1 m/S 730 mmHg 57%
    14:00 +32°C° 1,7 mm 2 m/S 730 mmHg 65%
    15:00 +31°C° 1,7 mm 2 m/S 729 mmHg 73%
    16:00 +29°C° 1,7 mm 2 m/S 728 mmHg 81%
    17:00 +28°C° 0,5 mm 2 m/S 729 mmHg 85%
    18:00 +26°C° 0,5 mm 1 m/S 729 mmHg 89%
    19:00 +25°C° 0,5 mm 1 m/S 730 mmHg 93%
    20:00 +25°C° 0,1 mm 1 m/S 731 mmHg 94%
    21:00 +25°C° 0,1 mm 1 m/S 731 mmHg 94%
    22:00 +24°C° 0,1 mm 1 m/S 732 mmHg 95%
    23:00 +24°C° 0,3 mm 1 m/S 731 mmHg 95%

    übermorgen, 22 August, Dienstag

    Zeit Temperatur Niederschläge Wind Luftdruck Luftfeuchtigkeit
    00:00 +24°C° 0,3 mm 1 m/S 731 mmHg 96%
    01:00 +24°C° 0,3 mm 1 m/S 731 mmHg 96%
    02:00 +24°C° 1,5 mm 1 m/S 731 mmHg 97%
    03:00 +24°C° 1,5 mm 1 m/S 731 mmHg 97%
    04:00 +24°C° 1,5 mm 1 m/S 730 mmHg 97%
    05:00 +24°C° 0 mm 1 m/S 731 mmHg 96%
    06:00 +24°C° 0 mm 1 m/S 732 mmHg 95%
    07:00 +25°C° 0 mm 1 m/S 732 mmHg 93%
    08:00 +26°C° 1,1 mm 2 m/S 733 mmHg 90%
    09:00 +27°C° 1,1 mm 2 m/S 733 mmHg 86%
    10:00 +28°C° 1,1 mm 2 m/S 733 mmHg 83%
    11:00 +28°C° 1,2 mm 2 m/S 733 mmHg 82%
    12:00 +29°C° 1,2 mm 2 m/S 732 mmHg 81%
    13:00 +29°C° 1,2 mm 1 m/S 731 mmHg 80%
    14:00 +28°C° 1,2 mm 1 m/S 731 mmHg 83%
    15:00 +28°C° 1,2 mm 1 m/S 730 mmHg 86%
    16:00 +27°C° 1,2 mm 1 m/S 729 mmHg 89%
    17:00 +26°C° 0,1 mm 1 m/S 730 mmHg 92%
    18:00 +25°C° 0,1 mm 1 m/S 730 mmHg 94%
    19:00 +25°C° 0,1 mm 1 m/S 731 mmHg 96%
    20:00 +24°C° 0 mm 1 m/S 731 mmHg 97%
    21:00 +24°C° 0 mm 1 m/S 731 mmHg 97%
    22:00 +22°C° 0 mm 0 m/S 731 mmHg 97%
    23:00 +22°C° 0 mm 0 m/S 731 mmHg 97%

    23 August, Mittwoch

    Zeit Temperatur Niederschläge Wind Luftdruck Luftfeuchtigkeit
    00:00 +21°C° 0 mm 0 m/S 731 mmHg 97%
    01:00 +21°C° 0 mm 0 m/S 731 mmHg 98%
    02:00 +23°C° 0 mm 1 m/S 730 mmHg 98%
    03:00 +23°C° 0 mm 1 m/S 730 mmHg 98%
    04:00 +23°C° 0 mm 1 m/S 730 mmHg 98%
    05:00 +23°C° 0 mm 1 m/S 731 mmHg 96%
    06:00 +24°C° 0 mm 1 m/S 731 mmHg 94%
    07:00 +24°C° 0 mm 1 m/S 732 mmHg 92%
    08:00 +26°C° 0 mm 1 m/S 732 mmHg 83%
    09:00 +28°C° 0 mm 1 m/S 732 mmHg 75%
    10:00 +30°C° 0 mm 2 m/S 733 mmHg 66%
    11:00 +31°C° 0,2 mm 2 m/S 731 mmHg 63%
    12:00 +32°C° 0,2 mm 2 m/S 730 mmHg 59%
    13:00 +34°C° 0,2 mm 2 m/S 729 mmHg 55%
    14:00 +32°C° 1,1 mm 2 m/S 729 mmHg 63%
    15:00 +31°C° 1,1 mm 1 m/S 729 mmHg 71%
    16:00 +30°C° 1,1 mm 1 m/S 728 mmHg 79%
    17:00 +28°C° 0,8 mm 1 m/S 729 mmHg 84%
    18:00 +26°C° 0,8 mm 1 m/S 730 mmHg 89%
    19:00 +25°C° 0,8 mm 1 m/S 730 mmHg 94%
    20:00 +25°C° 0 mm 1 m/S 730 mmHg 95%
    21:00 +24°C° 0 mm 1 m/S 731 mmHg 95%
    22:00 +24°C° 0 mm 1 m/S 731 mmHg 96%
    23:00 +24°C° 0 mm 1 m/S 731 mmHg 96%

    24 August, Donnerstag

    Zeit Temperatur Niederschläge Wind Luftdruck Luftfeuchtigkeit
    00:00 +23°C° 0 mm 1 m/S 730 mmHg 97%
    01:00 +23°C° 0 mm 1 m/S 730 mmHg 97%
    02:00 +23°C° 0,1 mm 1 m/S 730 mmHg 98%
    03:00 +23°C° 0,1 mm 1 m/S 730 mmHg 98%
    04:00 +23°C° 0,1 mm 1 m/S 730 mmHg 98%
    05:00 +23°C° 0 mm 1 m/S 731 mmHg 97%
    06:00 +24°C° 0 mm 1 m/S 731 mmHg 95%
    07:00 +24°C° 0 mm 1 m/S 732 mmHg 93%
    08:00 +26°C° 0 mm 1 m/S 732 mmHg 82%
    09:00 +28°C° 0 mm 2 m/S 732 mmHg 70%
    10:00 +31°C° 0 mm 2 m/S 733 mmHg 58%
    11:00 +31°C° 0,5 mm 2 m/S 732 mmHg 59%
    12:00 +31°C° 0,5 mm 2 m/S 731 mmHg 60%
    13:00 +31°C° 0,5 mm 2 m/S 730 mmHg 61%
    14:00 +31°C° 1 mm 2 m/S 729 mmHg 68%
    15:00 +30°C° 1 mm 1 m/S 729 mmHg 74%
    16:00 +29°C° 1 mm 1 m/S 729 mmHg 80%
    17:00 +28°C° 0,4 mm 1 m/S 729 mmHg 85%
    18:00 +26°C° 0,4 mm 1 m/S 730 mmHg 90%
    19:00 +25°C° 0,4 mm 1 m/S 730 mmHg 95%
    20:00 +25°C° 0 mm 1 m/S 731 mmHg 95%
    21:00 +24°C° 0 mm 1 m/S 731 mmHg 95%
    22:00 +24°C° 0 mm 1 m/S 731 mmHg 96%
    23:00 +24°C° 0,2 mm 1 m/S 731 mmHg 96%

    25 August, Freitag

    Zeit Temperatur Niederschläge Wind Luftdruck Luftfeuchtigkeit
    00:00 +24°C° 0,2 mm 1 m/S 731 mmHg 96%
    01:00 +24°C° 0,2 mm 1 m/S 731 mmHg 97%
    02:00 +24°C° 0 mm 1 m/S 731 mmHg 97%
    03:00 +24°C° 0 mm 1 m/S 731 mmHg 97%
    04:00 +24°C° 0 mm 1 m/S 731 mmHg 97%
    05:00 +24°C° 0 mm 1 m/S 731 mmHg 96%
    06:00 +24°C° 0 mm 1 m/S 732 mmHg 95%
    07:00 +24°C° 0 mm 1 m/S 732 mmHg 94%
    08:00 +26°C° 0 mm 1 m/S 732 mmHg 85%
    09:00 +28°C° 0 mm 2 m/S 733 mmHg 76%
    10:00 +30°C° 0 mm 2 m/S 733 mmHg 66%
    11:00 +30°C° 0,6 mm 2 m/S 732 mmHg 68%
    12:00 +30°C° 0,6 mm 2 m/S 731 mmHg 69%
    13:00 +31°C° 0,6 mm 2 m/S 730 mmHg 70%
    14:00 +31°C° 0,7 mm 2 m/S 729 mmHg 71%
    15:00 +30°C° 0,7 mm 1 m/S 729 mmHg 72%
    16:00 +30°C° 0,7 mm 1 m/S 729 mmHg 73%
    17:00 +29°C° 0,1 mm 1 m/S 729 mmHg 78%
    18:00 +27°C° 0,1 mm 1 m/S 730 mmHg 84%
    19:00 +26°C° 0,1 mm 1 m/S 730 mmHg 90%
    20:00 +25°C° 0,1 mm 1 m/S 730 mmHg 91%
    21:00 +25°C° 0,1 mm 1 m/S 731 mmHg 91%
    22:00 +25°C° 0,1 mm 1 m/S 731 mmHg 92%
    23:00 +25°C° 0,7 mm 1 m/S 731 mmHg 94%
    Mehr zeigen